YUNHAI 1

Satellite information

Favourite Embed

Satellite Type and Status

PAYLOADIN ORBIT

Key statistics

Satellite YUNHAI 1 at a glance.

Uptime

3320

Days in orbit

Revolutions

≈ 14.3

Per day

Orbit

SSO

Sun Synchronous Orbit

Inclination

98.6

Latest

Satellite identification and parameters

Extended collection of information and parameters for YUNHAI 1.

Object identification

Identified? True

Debris? False

Object name: YUNHAI 1

International designator: 2016-068A

Object number (NORAD): 41857

Object ID (CCSDS): 41857

Country: PEOPLES REPUBLIC OF CHINA (PRC)

Current information (Y/N): Y

RCS size: LARGE

Orbital parameters

Period: 100.513 minutes

Inclination: 98.5893 deg

SMA: 7161.037 km

Apoapsis: 786.345 km

Periapsis: 779.46 km

RAAN: 355.3664 deg

Eccentricy: 0.00048071

Argument of periapsis: 213.0732 deg

Mean anomaly: 147.0152 deg

Mean motion: 14.32645848 rev/day

Mean motion (dot): 0.00000468 rev/day2

B* drag term: 0.00018845313 1/REarth

Two-line elements (TLE)

Creation date: Dec. 14, 2025, 3:07 a.m.

Reference frame: TEME

Reference center: EARTH

Epoch: Dec. 13, 2025, 4:10 p.m. UTC

TLE line 0: 0 YUNHAI 1

TLE line 1: 1 41857U 16068A 25347.67417515 .00000468 00000-0 18845-3 0 9990

TLE line 2: 2 41857 98.5893 355.3664 0004807 213.0732 147.0152 14.32645848475267

Live tracking on map

Real-time ground track for satellite YUNHAI 1.

In-orbit conjunctions

There are no conjunctions computed for YUNHAI 1, at the moment. Check back to stay up to date, as we update our databases every day.

Go to all conjunctions

Associated space launch

The Yunhai-1 satellite is designed for detecting environmental elements in the atmosphere and ocean, the space environment, disaster prevention and reduction, and scientific experimentation. It is made by the Shanghai Institute of Spaceflight Technology.

YUNHAI 1 was lifted into orbit during the mission ‘Long March 2D | YunHai 1-01’, on board a Long March 2D space rocket.

The launch took place on Nov. 11, 2016, 11:14 p.m. from Launch Area 94 (SLS-2 / 603).

For more information about the launch, click the button.

Launch to space Long March 2D | YunHai 1-01
Long March 2D | YunHai 1-01

Agency: N/A

Status: Launch Successful

Launch date: Nov. 11, 2016, 11:14 p.m. UTC

Rocket: Long March 2D

Launch pad: Launch Area 94 (SLS-2 / 603)

Location: Jiuquan Satellite Launch Center, People's Republic of China

...

Latest news about this satellite

There are no fresh news available about this satellite. Check back as we update our databases every day.


Newsletter sign-up

Weekly statistics, charts and insights to help you stay on top of the space industry.